Wind_Speed
12 11 11 10 8 8 8 9 10 10 10 11 11 10 10 11 12 12 13 13 13 13 12 11 12 12 12 10 10 11 10 9 9 9 10 10 10 10 10 9 9 10 10 10 10 10 10 9 8 8 8 9 8 6 5 5 4 4 5 5 5 5 5
11 11 10 10 9 9 9 10 10 11 11 11 11 11 11 11 12 12 12 13 14 13 11 11 13 13 12 10 11 11 9 9 10 9 9 10 10 10 10 9 10 11 11 11 11 11 11 10 9 8 9 9 8 7 6 5 4 4 4 4 6 5 5
11 10 10 10 9 9 9 9 9 10 10 11 12 12 11 11 11 12 13 14 15 13 12 13 15 14 12 10 11 11 9 10 10 10 10 11 11 11 11 10 11 13 13 12 11 11 11 10 9 9 9 10 9 8 7 5 4 3 4 4 5 5 4
10 9 9 10 10 10 9 9 9 10 10 12 13 12 12 11 12 13 14 15 16 15 15 15 15 14 12 11 12 12 11 11 11 11 11 11 12 12 11 11 13 14 14 12 11 11 10 9 9 9 9 9 9 8 7 5 3 2 3 4 4 4 3
9 9 8 9 10 10 10 9 9 10 11 12 13 12 11 12 13 14 15 16 17 16 16 16 15 14 14 13 13 14 13 11 11 12 12 12 12 12 12 12 14 15 13 12 12 11 10 9 8 9 9 8 8 8 6 4 3 2 3 4 3 3 3
8 7 8 9 10 10 10 10 11 12 12 12 12 11 11 13 15 15 16 16 16 15 16 16 16 14 13 13 13 13 12 11 12 12 12 12 11 11 12 13 14 14 13 12 12 11 10 9 9 9 8 7 6 6 5 4 3 3 4 4 2 3 2
7 6 8 10 10 10 10 10 11 12 12 12 11 11 12 13 15 16 16 16 17 17 16 16 15 14 13 13 13 12 12 12 12 12 12 12 10 10 11 13 14 14 13 13 11 10 10 10 10 10 9 7 6 5 5 4 3 3 4 3 2 2 2
7 6 8 10 11 11 11 11 11 12 12 12 12 13 14 15 16 16 16 17 18 18 18 16 15 14 14 13 12 12 12 12 12 12 12 11 9 9 11 12 13 13 13 13 12 11 10 10 10 11 10 8 7 5 4 4 4 4 4 3 2 2 2
7 6 8 10 11 11 11 12 12 12 12 13 14 15 15 16 16 17 17 18 18 18 18 17 16 15 15 13 12 12 11 10 10 10 10 10 9 9 10 11 12 12 12 12 11 11 10 9 9 10 9 8 7 5 5 5 4 4 5 3 2 3 3
9 7 8 10 11 11 12 13 13 12 13 15 16 16 16 16 16 17 17 17 16 17 17 17 17 16 14 12 12 11 10 9 9 9 9 9 8 8 9 10 10 10 10 11 11 10 9 8 8 9 8 7 7 6 6 6 5 5 6 4 4 4 5
10 8 8 9 11 12 14 15 14 13 14 16 16 16 16 16 15 16 15 14 14 15 16 16 16 15 13 12 11 10 9 8 8 8 7 7 7 8 9 9 9 9 9 10 10 9 9 9 8 9 9 9 8 8 8 7 6 6 7 6 5 6 6
10 9 9 9 11 14 16 16 15 14 14 15 16 16 15 15 14 14 13 13 13 14 14 14 14 14 13 12 10 9 8 8 8 8 7 7 7 8 8 9 9 9 9 10 10 9 9 9 9 9 10 11 10 9 9 9 7 8 8 7 7 6 5
10 10 9 10 11 14 16 16 15 14 14 15 15 15 14 14 13 14 13 13 13 14 15 14 14 14 13 11 10 9 9 9 9 8 8 7 8 8 8 9 10 9 10 10 10 10 10 10 10 10 12 12 11 10 10 9 8 9 8 7 6 5 5
11 11 11 10 11 13 15 16 16 15 15 15 15 14 14 13 13 13 13 14 14 15 15 15 14 14 13 11 11 11 10 10 10 10 9 9 9 9 10 11 11 11 11 11 11 11 10 11 11 12 13 13 11 11 11 9 8 8 7 6 6 5 5
11 11 12 11 11 13 15 16 17 17 16 15 15 14 14 13 13 13 13 14 14 15 16 16 16 15 14 13 12 12 12 11 10 10 11 11 11 11 11 12 13 13 12 12 12 12 10 11 12 12 13 12 10 10 10 9 8 8 8 8 7 6 6
12 11 12 12 12 14 15 17 19 18 17 16 15 14 14 14 13 13 13 14 14 15 15 16 16 16 15 14 13 13 12 12 11 11 12 12 12 11 12 12 13 13 13 13 13 12 11 12 13 13 13 12 10 9 10 9 9 9 9 9 8 7 7
15 13 13 13 13 15 16 18 20 20 19 17 15 14 15 14 14 14 14 13 14 15 15 15 16 15 15 14 13 12 11 11 11 11 11 11 11 12 12 12 12 12 13 14 14 12 12 12 13 14 14 12 11 11 11 12 11 11 10 9 9 9 9
18 16 16 17 18 17 17 18 20 21 21 19 17 16 15 15 16 15 14 13 13 14 15 16 16 15 14 14 13 12 12 11 11 11 11 11 12 13 13 13 13 12 13 14 14 12 11 11 13 15 14 12 11 11 12 13 13 12 10 10 11 12 12
19 19 19 20 21 20 18 18 20 22 24 22 19 17 17 17 16 15 14 14 14 15 16 17 17 16 16 15 15 14 13 12 12 12 12 13 13 13 13 14 14 14 15 16 14 12 12 12 13 14 14 11 11 11 12 13 14 14 12 12 13 14 15
19 19 18 20 22 23 21 20 21 23 25 25 22 20 19 17 16 16 16 17 17 16 16 17 18 18 17 17 17 17 15 15 15 14 14 15 15 14 14 15 16 16 17 18 16 13 13 13 13 14 14 13 13 13 14 15 16 16 15 15 16 17 18
23 22 19 20 24 26 26 24 22 24 26 26 23 22 21 18 17 18 19 20 19 17 17 18 18 18 19 19 19 19 18 18 17 15 16 17 16 15 16 16 17 17 18 18 17 15 14 13 13 14 15 16 16 16 16 17 18 18 19 19 20 20 21
26 25 23 22 23 25 27 25 24 25 27 26 25 24 21 19 20 20 21 22 21 19 19 20 20 20 20 21 21 21 20 19 18 17 18 19 18 18 18 18 18 18 18 19 18 17 15 14 14 16 17 18 18 19 19 19 20 21 21 22 23 23 24
24 25 25 25 24 24 27 26 25 27 28 28 27 25 21 21 22 22 22 23 22 21 22 23 23 22 23 23 22 22 21 21 20 19 19 20 19 19 19 20 20 20 20 20 20 19 18 16 17 18 19 19 20 21 21 22 22 23 24 24 25 26 26
23 24 26 26 24 24 27 27 26 28 29 30 29 25 23 24 24 22 22 23 23 23 24 25 25 25 25 24 23 23 23 23 23 22 21 20 20 20 21 21 22 22 21 20 21 21 20 19 19 20 21 22 22 22 23 24 25 25 26 27 27 28 29
25 24 25 27 26 26 28 29 29 29 31 32 29 26 26 27 26 23 22 23 24 24 24 25 26 27 27 26 25 25 25 25 25 23 22 21 21 22 22 21 22 22 21 21 21 22 22 22 22 23 23 24 24 24 25 26 27 28 29 29 29 30 31
26 26 26 27 28 29 30 31 31 32 33 32 29 28 29 29 27 24 23 24 25 25 25 25 26 27 28 27 26 26 26 26 25 24 23 23 23 23 22 22 23 24 23 23 23 23 24 24 24 24 25 25 26 26 27 28 29 30 30 31 31 32 33
27 28 27 27 28 31 33 34 35 35 33 31 29 30 31 31 29 26 24 25 26 26 26 27 27 28 28 28 27 27 27 27 26 25 25 26 25 24 23 23 25 25 23 23 24 24 25 25 25 26 26 27 28 29 30 31 31 31 31 32 33 34 35
26 27 28 27 27 30 32 34 37 35 31 29 29 30 32 32 31 29 27 26 27 27 27 28 28 29 29 29 29 28 28 28 27 27 27 28 26 25 24 24 25 25 24 24 25 25 26 26 27 27 28 29 30 31 32 33 33 34 34 35 35 36 37
26 28 29 28 28 29 31 35 36 34 32 30 30 31 33 34 34 31 30 29 28 28 29 29 29 30 30 31 31 31 29 29 28 28 29 29 27 26 25 25 26 26 26 27 27 28 28 29 29 30 31 32 33 33 33 34 35 36 36 37 37 38 38
28 29 29 30 31 31 32 35 36 35 35 34 32 32 34 36 35 34 33 32 31 30 31 31 32 32 32 33 34 34 32 30 30 31 31 30 29 28 27 27 27 28 29 30 31 31 31 32 32 33 34 35 35 36 36 36 37 37 38 39 39 40 40
30 32 31 30 32 33 34 37 37 34 35 35 33 33 34 36 36 35 35 34 32 32 33 34 34 35 36 36 36 37 35 33 33 33 33 32 32 31 30 29 29 30 31 32 32 33 34 35 35 36 36 37 37 37 38 38 39 39 40 41 41 42 42
33 36 35 33 35 36 36 38 39 36 35 37 35 33 34 36 36 36 36 35 33 33 34 35 35 35 35 35 36 37 36 35 35 35 33 33 32 32 31 31 31 32 33 34 35 35 36 36 37 37 37 37 37 37 38 38 39 39 40 41 42 43 43
30 33 35 35 37 39 39 40 41 39 37 38 35 32 32 34 33 34 36 36 34 32 32 34 34 33 32 33 34 36 36 35 35 35 34 33 33 33 33 33 34 35 35 36 36 36 36 36 37 37 37 37 37 37 37 38 39 39 40 41 43 44 45
28 30 32 35 38 42 44 44 43 40 38 38 35 31 30 30 31 33 34 34 33 32 32 32 32 32 32 33 34 34 34 35 36 35 35 34 34 34 34 35 36 36 36 36 36 36 36 37 37 37 38 38 38 38 39 39 40 41 42 43 44 46 47
30 32 32 36 39 42 44 43 41 39 39 38 35 33 32 31 32 33 33 34 35 35 34 34 33 33 34 34 34 34 34 35 36 36 36 35 35 35 36 36 37 37 36 37 37 37 37 38 38 39 39 39 40 40 41 42 43 44 46 47 48 50 51
28 32 30 32 37 40 41 39 38 39 40 40 38 36 34 33 34 33 33 36 38 38 38 37 36 35 35 34 34 35 35 36 37 37 38 37 37 37 37 37 37 37 37 38 38 38 39 40 41 41 41 42 43 44 44 46 47 48 49 50 52 53 53
22 28 30 29 31 34 36 36 36 37 39 39 37 35 34 35 35 35 35 38 40 40 40 39 36 35 35 35 35 35 35 36 36 37 38 39 39 39 39 39 39 40 40 40 40 40 41 41 42 43 44 45 46 47 48 50 51 51 52 53 54 55 55
Wind_Direction
295 299 297 294 286 272 256 241 238 236 231 232 238 239 229 220 217 217 219 222 227 230 230 236 244 243 241 239 231 229 232 227 220 222 227 230 230 231 234 239 241 237 237 238 238 239 237 234 233 231 234 238 240 243 248 245 240 242 251 263 272 275 284
294 297 295 292 285 277 264 250 242 238 234 232 232 231 225 218 215 218 219 222 232 238 234 235 242 245 247 245 239 239 241 234 229 229 231 235 237 238 241 243 239 238 239 240 240 242 244 243 239 234 237 241 241 243 250 249 244 249 261 273 277 286 304
292 293 292 288 285 280 268 253 241 236 233 228 224 222 221 218 218 223 224 225 232 237 236 238 240 241 242 243 247 249 247 243 244 246 243 243 245 245 243 240 237 239 239 239 240 240 242 244 241 234 233 240 240 236 239 242 242 254 269 277 282 297 310
288 287 290 286 283 280 265 245 231 227 225 221 218 216 217 219 225 229 229 230 233 234 236 240 242 242 241 243 250 249 246 248 252 254 251 248 248 245 239 235 234 234 235 238 240 235 235 240 237 229 227 232 234 232 233 233 231 248 266 272 284 303 306
286 281 282 281 279 274 260 238 225 222 218 215 216 217 219 221 226 230 231 232 235 237 241 244 246 247 243 242 245 244 243 247 248 250 251 250 248 244 237 229 224 225 233 240 237 230 231 233 227 223 225 224 223 223 226 226 216 222 248 263 280 284 278
286 280 275 274 271 267 255 233 224 225 222 219 222 224 223 222 226 228 229 232 235 239 243 246 247 248 247 247 248 247 248 250 249 249 250 249 244 239 233 224 219 226 236 235 229 227 232 233 230 228 224 214 211 213 214 219 209 205 231 244 247 243 249
283 277 274 272 265 260 251 232 225 228 227 227 233 237 233 227 227 228 227 229 231 233 237 242 248 250 251 252 251 251 251 249 249 250 248 245 237 231 228 224 224 230 230 226 224 227 230 232 235 233 222 215 221 217 209 215 203 198 221 226 208 217 239
282 269 271 270 262 257 249 234 229 232 233 237 241 243 239 233 232 232 230 229 228 230 232 237 245 252 255 253 252 252 250 245 243 243 240 237 232 229 227 224 224 226 226 229 230 228 228 230 233 233 223 216 221 212 203 215 199 192 216 220 194 220 245
278 260 260 265 262 257 250 242 239 241 244 248 249 245 241 237 235 234 233 231 230 233 236 238 244 252 257 255 250 251 249 241 237 235 232 232 227 221 224 225 226 230 232 233 230 224 224 223 221 223 216 207 211 207 206 216 199 197 222 232 223 236 248
273 258 250 255 259 255 250 249 248 249 251 251 250 246 242 238 235 235 235 233 232 235 239 242 247 252 254 249 243 241 240 238 240 240 236 232 224 216 219 223 227 229 225 223 222 217 214 207 203 208 206 206 212 209 211 219 210 211 228 237 235 242 251
272 262 248 247 252 250 248 247 246 245 246 246 245 242 240 238 237 237 238 237 236 239 242 246 249 249 246 241 239 235 235 240 242 234 228 223 215 213 217 219 219 217 216 220 219 212 206 199 199 201 201 210 216 212 217 221 216 220 230 238 239 242 249
272 266 251 244 247 249 248 246 243 239 240 242 242 242 243 243 244 246 246 243 242 244 248 250 250 248 243 241 243 239 237 243 238 222 215 212 204 203 212 218 216 213 219 223 216 210 208 204 207 206 204 215 217 215 219 218 215 224 231 237 239 239 246
270 268 256 246 245 249 250 249 246 243 242 243 243 246 248 248 250 253 253 250 248 248 251 251 248 244 242 241 244 242 236 235 234 228 221 214 205 202 209 218 219 218 225 226 219 219 219 214 214 210 210 218 216 214 222 220 216 224 228 234 241 242 248
264 269 264 255 248 251 254 255 253 249 244 243 244 248 250 251 251 252 253 252 250 249 249 249 244 238 238 240 240 240 238 232 230 232 230 224 218 217 219 223 228 229 230 230 228 228 225 218 216 214 217 221 215 214 225 225 217 221 226 233 240 246 255
258 269 271 266 258 257 260 261 260 253 244 241 243 248 252 254 252 251 252 251 250 249 246 245 241 235 236 239 239 239 240 236 230 230 233 233 232 232 229 227 230 231 229 230 230 228 223 220 221 222 224 227 222 221 229 229 222 223 226 229 234 240 253
255 263 269 268 266 266 266 267 264 256 246 241 244 250 254 255 254 252 251 250 250 247 241 239 239 238 237 239 238 237 238 238 235 232 234 237 238 237 233 230 231 228 223 224 227 224 218 218 223 229 234 238 236 231 233 235 229 225 226 230 235 242 251
246 249 251 253 260 265 266 268 267 260 252 247 247 251 253 253 252 251 250 249 246 243 239 239 241 241 239 237 233 230 231 234 237 238 239 240 240 240 239 238 237 230 222 224 229 227 222 222 228 237 244 243 236 228 231 237 235 229 228 233 240 247 252
244 245 244 244 251 254 254 259 264 263 257 253 251 251 250 250 249 250 250 247 244 240 238 240 240 238 236 232 229 227 228 231 237 241 242 240 239 240 243 243 239 233 229 232 235 233 231 233 237 243 246 242 230 227 233 242 246 242 238 240 247 252 255
256 254 253 253 251 248 245 247 255 260 259 255 253 251 249 248 247 249 249 246 242 238 237 237 236 233 231 231 233 235 239 243 244 244 244 243 241 241 243 243 239 236 236 239 240 238 237 237 238 243 247 244 237 236 242 250 256 257 255 252 254 257 259
263 263 260 257 252 247 245 244 247 254 256 255 253 252 251 249 246 245 246 246 245 241 240 239 236 233 232 236 242 246 252 256 254 250 247 246 244 241 241 240 239 240 242 245 245 240 239 239 239 242 246 247 246 246 249 254 259 262 263 262 261 262 263
263 267 264 259 253 248 244 242 243 248 252 254 253 253 252 250 246 242 241 245 246 246 245 244 240 237 236 240 247 251 256 259 258 255 251 250 247 244 242 240 239 241 245 250 251 246 244 246 248 249 251 253 256 256 256 257 260 262 264 265 265 266 267
266 267 264 260 255 247 240 237 239 244 248 251 253 253 253 251 249 244 239 241 245 247 248 247 244 241 240 241 246 251 254 256 256 254 252 252 250 247 246 245 243 243 245 251 255 254 252 253 255 256 256 259 264 266 264 262 263 264 265 267 268 268 269
272 265 260 259 258 248 238 234 237 242 245 248 251 253 253 250 251 248 240 239 242 243 245 246 246 244 243 244 246 249 252 254 254 252 252 253 253 250 250 249 248 248 248 251 256 258 259 259 258 259 260 260 262 266 268 268 268 268 268 269 270 271 271
275 268 260 258 258 251 239 234 238 242 243 246 249 251 251 250 252 250 243 239 240 242 244 245 247 248 247 248 248 251 252 253 254 253 253 255 255 252 251 252 252 253 253 254 257 260 261 261 261 262 264 264 264 265 269 271 273 273 273 273 274 275 275
273 270 262 254 252 253 246 239 238 241 243 245 247 249 250 251 252 250 245 241 242 245 246 247 248 249 250 251 251 253 254 255 255 255 254 254 253 252 252 253 254 254 254 254 255 257 259 261 263 264 265 267 267 267 269 272 273 276 277 278 278 278 278
270 266 262 254 250 255 254 244 236 237 241 244 246 248 249 251 252 251 248 244 243 245 247 248 248 249 250 251 252 254 255 256 256 256 255 253 251 250 249 249 251 252 252 253 255 256 259 262 264 265 267 268 270 270 271 272 274 276 278 279 280 280 279
268 263 261 256 250 254 257 246 233 233 239 244 246 247 249 250 250 250 248 244 242 243 245 246 248 249 250 251 252 253 255 257 257 257 256 254 253 252 250 249 251 253 253 255 257 259 261 263 265 267 268 270 271 271 272 273 274 276 277 278 278 279 279
266 261 260 257 251 252 253 241 228 229 238 245 247 248 248 249 248 247 247 245 243 242 243 245 247 249 251 252 252 252 254 256 257 256 255 256 255 254 252 251 252 253 254 254 256 258 261 262 263 264 265 267 268 269 271 273 275 276 276 276 277 278 278
262 259 258 256 252 250 244 232 229 236 245 250 250 248 247 247 248 247 246 245 244 243 243 244 246 250 253 255 254 253 253 254 255 254 254 256 256 253 251 251 252 253 255 255 255 256 257 258 260 262 263 265 266 268 270 272 273 275 276 276 277 278 278
259 262 264 259 253 249 239 229 233 244 250 250 250 248 245 246 247 247 246 245 244 244 245 246 249 253 256 258 258 256 253 252 252 251 251 252 253 251 250 250 251 253 254 255 256 257 258 260 261 263 264 266 268 269 270 272 273 274 275 276 277 278 278
250 255 260 256 250 246 237 227 230 242 247 245 246 245 243 244 246 247 247 247 245 246 249 251 253 255 257 258 259 257 253 250 249 249 249 250 251 252 251 251 253 254 256 257 258 260 261 262 264 266 267 269 271 272 273 274 275 276 277 277 278 278 279
238 238 239 238 237 237 232 226 230 243 248 244 244 244 241 242 246 248 250 250 248 247 251 253 255 256 257 257 256 252 249 248 249 250 252 252 254 255 256 256 257 258 258 259 260 262 263 264 266 267 269 270 272 273 274 275 276 277 277 278 279 280 281
244 238 235 234 231 227 223 224 234 245 246 241 242 245 242 242 246 249 250 251 249 249 252 253 252 251 251 250 249 247 247 246 247 250 252 252 253 255 257 258 259 260 260 261 262 263 265 266 267 268 268 269 270 271 272 273 274 276 277 278 280 281 282
256 249 245 242 235 226 221 227 237 244 243 240 244 248 246 245 246 247 246 246 248 252 256 254 249 245 243 243 244 247 247 246 245 248 251 253 254 255 256 258 259 261 262 263 264 264 265 266 267 268 269 270 271 272 274 276 278 279 281 282 282 283 284
250 247 246 246 240 231 228 233 239 241 241 242 247 252 251 247 246 245 243 244 250 256 257 252 247 243 242 243 244 247 248 247 246 247 250 252 254 256 257 259 261 262 264 264 265 265 266 267 268 269 271 273 275 277 279 280 281 282 283 283 284 284 285
242 239 244 247 242 236 234 237 240 242 245 248 251 252 249 244 245 248 249 251 256 259 255 248 245 244 244 244 245 245 246 247 247 248 250 253 256 258 260 261 262 264 265 266 267 268 270 272 273 275 276 278 280 281 281 282 283 283 284 284 285 285 286
248 237 239 244 243 241 240 242 245 248 250 252 250 246 241 239 242 246 249 252 256 255 249 244 243 245 245 244 244 244 245 246 247 249 252 255 257 259 260 261 262 263 264 266 268 269 271 274 276 277 279 280 281 282 283 283 284 285 285 286 287 287 288
Height
5786 5786 5787 5788 5788 5789 5789 5790 5790 5791 5791 5792 5793 5793 5795 5796 5797 5798 5798 5798 5798 5797 5798 5798 5798 5799 5801 5802 5803 5804 5806 5807 5807 5808 5809 5810 5810 5810 5811 5811 5812 5812 5813 5813 5814 5814 5815 5815 5816 5816 5816 5816 5816 5816 5817 5817 5818 5819 5819 5819 5819 5819 5819
5784 5784 5785 5786 5786 5787 5787 5788 5788 5789 5790 5791 5791 5792 5793 5794 5795 5796 5796 5796 5795 5794 5796 5796 5796 5797 5799 5800 5801 5802 5803 5804 5805 5806 5807 5808 5808 5808 5809 5809 5810 5810 5811 5812 5812 5813 5814 5814 5814 5815 5815 5814 5814 5815 5816 5816 5817 5818 5818 5818 5818 5818 5818
5782 5782 5782 5783 5784 5785 5785 5786 5787 5787 5788 5789 5789 5790 5790 5791 5793 5794 5794 5794 5793 5792 5794 5794 5794 5796 5798 5798 5799 5801 5802 5803 5804 5805 5805 5806 5806 5807 5807 5808 5808 5809 5809 5810 5811 5812 5812 5812 5813 5813 5813 5813 5814 5815 5815 5816 5816 5816 5817 5817 5816 5817 5817
5780 5780 5781 5781 5782 5783 5783 5784 5785 5786 5786 5787 5788 5788 5789 5790 5791 5792 5792 5792 5791 5791 5792 5793 5793 5795 5796 5797 5798 5799 5800 5801 5802 5803 5803 5804 5805 5805 5805 5806 5807 5807 5808 5808 5809 5810 5810 5811 5811 5812 5812 5812 5813 5814 5814 5815 5815 5815 5815 5815 5815 5815 5816
5777 5778 5779 5779 5780 5780 5781 5782 5783 5784 5785 5786 5786 5787 5787 5788 5789 5790 5790 5790 5789 5790 5790 5791 5791 5792 5794 5796 5797 5797 5798 5800 5800 5801 5801 5802 5802 5803 5803 5804 5805 5805 5806 5807 5808 5809 5809 5809 5810 5810 5811 5811 5812 5812 5813 5813 5814 5814 5814 5814 5814 5814 5814
5775 5776 5777 5777 5778 5778 5779 5780 5781 5782 5783 5783 5784 5785 5786 5787 5787 5788 5789 5788 5788 5789 5788 5788 5789 5790 5792 5794 5795 5796 5797 5798 5798 5799 5799 5800 5800 5801 5801 5802 5802 5803 5804 5805 5806 5807 5807 5808 5808 5809 5810 5810 5810 5811 5811 5811 5812 5812 5812 5812 5812 5813 5813
5774 5774 5774 5775 5775 5776 5777 5778 5779 5780 5781 5782 5783 5783 5784 5785 5785 5786 5786 5787 5786 5787 5786 5786 5787 5788 5790 5791 5792 5794 5795 5796 5796 5797 5797 5798 5798 5799 5799 5800 5800 5801 5802 5802 5803 5804 5805 5805 5806 5807 5808 5809 5809 5809 5810 5810 5810 5811 5810 5810 5811 5811 5811
5772 5772 5772 5773 5773 5774 5775 5777 5778 5779 5780 5781 5781 5782 5782 5783 5783 5784 5784 5785 5784 5784 5784 5785 5785 5786 5787 5788 5790 5792 5793 5794 5794 5795 5795 5796 5796 5797 5797 5798 5798 5799 5800 5800 5801 5802 5803 5804 5805 5805 5806 5807 5807 5808 5808 5808 5809 5809 5809 5809 5809 5810 5810
5770 5771 5771 5771 5772 5773 5774 5775 5776 5777 5778 5778 5779 5780 5781 5781 5782 5782 5782 5783 5783 5782 5782 5783 5784 5784 5785 5787 5788 5789 5791 5792 5792 5793 5793 5794 5795 5795 5796 5796 5797 5798 5798 5798 5799 5800 5801 5802 5803 5803 5804 5805 5806 5806 5807 5807 5808 5808 5807 5807 5808 5808 5808
5769 5769 5770 5770 5771 5771 5772 5772 5773 5774 5775 5776 5777 5778 5779 5780 5780 5780 5780 5780 5781 5780 5780 5781 5782 5783 5784 5785 5786 5787 5788 5789 5790 5791 5792 5792 5793 5794 5794 5795 5796 5797 5797 5797 5798 5799 5800 5801 5802 5802 5803 5804 5804 5804 5805 5805 5806 5806 5805 5805 5806 5806 5807
5767 5768 5768 5769 5770 5771 5771 5771 5772 5773 5774 5775 5776 5777 5777 5778 5777 5777 5777 5778 5778 5778 5778 5778 5780 5781 5782 5783 5784 5785 5786 5787 5789 5790 5790 5791 5792 5792 5793 5794 5794 5795 5795 5796 5797 5798 5799 5800 5800 5801 5802 5802 5802 5803 5803 5803 5804 5804 5804 5804 5804 5805 5805
5766 5766 5767 5767 5769 5769 5770 5770 5771 5771 5772 5773 5774 5774 5774 5775 5774 5774 5774 5775 5775 5775 5775 5776 5777 5779 5780 5780 5781 5783 5785 5785 5787 5788 5789 5790 5790 5791 5792 5792 5793 5794 5794 5795 5796 5797 5797 5798 5799 5800 5800 5800 5800 5801 5801 5801 5802 5802 5802 5802 5803 5803 5803
5764 5765 5765 5766 5767 5768 5768 5769 5769 5769 5770 5770 5771 5771 5771 5772 5772 5772 5772 5772 5773 5773 5773 5774 5776 5776 5777 5778 5779 5780 5783 5784 5784 5786 5787 5788 5789 5790 5791 5791 5792 5793 5793 5793 5794 5795 5796 5796 5797 5798 5798 5798 5799 5799 5799 5799 5800 5800 5800 5800 5801 5801 5800
5761 5762 5763 5764 5764 5765 5766 5767 5767 5767 5767 5767 5768 5768 5768 5769 5769 5770 5770 5771 5771 5771 5771 5772 5774 5775 5776 5777 5778 5779 5781 5782 5783 5784 5785 5787 5788 5788 5789 5790 5790 5791 5791 5792 5792 5793 5794 5794 5794 5795 5796 5796 5797 5797 5797 5798 5798 5798 5798 5798 5798 5799 5798
5758 5760 5761 5762 5762 5762 5763 5765 5765 5765 5765 5765 5765 5766 5766 5767 5768 5768 5769 5769 5769 5769 5770 5770 5772 5774 5775 5776 5777 5777 5778 5780 5781 5782 5783 5784 5785 5786 5787 5788 5788 5789 5790 5790 5790 5791 5792 5792 5792 5793 5794 5794 5795 5796 5795 5795 5796 5796 5796 5796 5796 5796 5796
5755 5757 5759 5759 5760 5760 5761 5762 5763 5764 5764 5764 5764 5764 5764 5765 5766 5766 5767 5767 5767 5768 5768 5769 5770 5772 5773 5774 5775 5776 5776 5777 5779 5780 5781 5782 5783 5783 5784 5785 5786 5787 5787 5787 5788 5788 5789 5790 5790 5791 5792 5793 5793 5794 5793 5793 5794 5794 5794 5794 5794 5794 5794
5752 5754 5756 5756 5757 5758 5759 5760 5761 5762 5763 5762 5762 5762 5762 5763 5764 5764 5765 5766 5766 5766 5767 5767 5768 5769 5771 5772 5773 5774 5775 5776 5777 5778 5779 5780 5781 5781 5782 5783 5783 5784 5785 5785 5785 5786 5788 5789 5789 5789 5790 5791 5792 5792 5792 5791 5792 5792 5792 5792 5791 5791 5792
5750 5752 5752 5753 5753 5754 5755 5757 5758 5760 5761 5761 5760 5760 5760 5761 5761 5763 5764 5764 5764 5764 5765 5765 5766 5767 5768 5769 5771 5772 5773 5775 5775 5776 5777 5778 5778 5779 5780 5780 5781 5782 5783 5783 5784 5785 5786 5787 5788 5787 5788 5789 5790 5790 5790 5789 5789 5790 5790 5790 5789 5789 5789
5749 5750 5750 5750 5751 5751 5752 5753 5755 5757 5758 5759 5759 5758 5758 5759 5760 5761 5762 5761 5761 5761 5762 5763 5764 5765 5766 5767 5768 5769 5771 5773 5773 5775 5775 5776 5777 5778 5778 5779 5779 5780 5781 5781 5782 5783 5784 5785 5785 5785 5785 5786 5787 5787 5788 5787 5786 5786 5787 5787 5787 5787 5787
5746 5747 5747 5747 5748 5749 5750 5750 5752 5754 5755 5756 5756 5756 5756 5757 5758 5758 5758 5758 5758 5759 5760 5761 5762 5763 5764 5765 5765 5766 5768 5769 5771 5772 5773 5773 5775 5776 5776 5777 5778 5778 5778 5778 5780 5781 5782 5782 5782 5782 5783 5783 5784 5784 5785 5784 5784 5783 5784 5784 5784 5784 5784
5743 5743 5744 5744 5744 5745 5746 5748 5749 5750 5751 5752 5753 5753 5753 5754 5754 5755 5755 5755 5756 5757 5758 5759 5760 5762 5763 5764 5764 5765 5766 5767 5768 5770 5770 5770 5772 5773 5774 5774 5775 5776 5776 5776 5777 5778 5779 5780 5780 5780 5780 5780 5780 5781 5781 5781 5781 5781 5781 5781 5781 5781 5781
5740 5740 5740 5739 5739 5740 5742 5744 5746 5746 5747 5748 5749 5749 5751 5751 5750 5751 5751 5752 5754 5756 5757 5757 5758 5759 5760 5761 5762 5763 5763 5764 5765 5767 5767 5767 5769 5770 5771 5771 5772 5773 5773 5773 5774 5775 5776 5777 5777 5777 5777 5777 5777 5777 5777 5778 5778 5778 5778 5777 5777 5778 5778
5736 5736 5735 5735 5736 5737 5738 5741 5743 5742 5743 5744 5744 5747 5749 5748 5747 5747 5748 5750 5751 5753 5754 5755 5755 5756 5757 5758 5759 5760 5761 5761 5762 5764 5764 5765 5766 5767 5768 5768 5769 5769 5770 5771 5771 5772 5773 5774 5774 5774 5774 5774 5774 5773 5773 5774 5774 5774 5774 5774 5774 5774 5774
5731 5732 5731 5731 5733 5734 5736 5739 5739 5739 5739 5740 5741 5744 5746 5744 5744 5744 5745 5747 5748 5750 5751 5752 5753 5754 5754 5755 5757 5758 5758 5758 5759 5760 5761 5762 5763 5764 5764 5765 5765 5766 5768 5768 5769 5769 5770 5770 5770 5770 5770 5770 5771 5771 5770 5770 5769 5769 5769 5770 5770 5769 5769
5727 5727 5728 5728 5730 5731 5733 5735 5736 5735 5736 5737 5739 5742 5741 5740 5741 5742 5743 5744 5745 5746 5748 5749 5750 5751 5751 5752 5753 5754 5755 5755 5756 5757 5759 5759 5760 5760 5761 5762 5763 5763 5764 5765 5765 5765 5766 5766 5767 5767 5767 5767 5767 5767 5767 5766 5765 5765 5765 5765 5765 5764 5764
5724 5723 5724 5725 5727 5728 5729 5731 5732 5732 5733 5735 5737 5738 5738 5737 5739 5740 5740 5741 5742 5743 5744 5745 5746 5747 5748 5749 5750 5751 5752 5752 5753 5754 5755 5756 5756 5756 5758 5759 5759 5759 5760 5761 5761 5762 5762 5762 5762 5762 5763 5763 5763 5763 5763 5762 5762 5762 5761 5761 5761 5760 5760
5720 5720 5720 5722 5723 5724 5725 5726 5727 5728 5730 5732 5734 5734 5734 5735 5736 5737 5737 5738 5738 5739 5740 5742 5743 5743 5744 5746 5747 5748 5748 5749 5750 5751 5752 5752 5753 5754 5755 5756 5755 5756 5757 5758 5758 5758 5758 5758 5758 5758 5758 5758 5758 5758 5758 5758 5758 5758 5758 5758 5757 5756 5756
5718 5717 5718 5719 5720 5721 5720 5721 5722 5725 5727 5729 5730 5730 5731 5732 5733 5734 5734 5735 5736 5737 5737 5738 5739 5740 5741 5742 5743 5744 5745 5746 5747 5748 5748 5748 5750 5751 5752 5752 5752 5753 5754 5754 5755 5754 5754 5754 5754 5754 5754 5753 5753 5753 5753 5753 5753 5753 5753 5753 5753 5752 5751
5714 5715 5715 5716 5717 5717 5717 5717 5719 5721 5723 5725 5726 5727 5728 5728 5729 5730 5731 5731 5732 5734 5734 5735 5736 5737 5738 5738 5739 5741 5742 5743 5744 5745 5745 5746 5747 5748 5749 5749 5749 5749 5750 5750 5750 5750 5750 5749 5749 5750 5749 5749 5749 5749 5749 5749 5749 5748 5748 5748 5748 5747 5746
5709 5710 5711 5712 5713 5713 5714 5715 5716 5717 5719 5720 5722 5723 5724 5724 5726 5727 5727 5728 5729 5730 5731 5732 5733 5734 5734 5735 5735 5736 5738 5740 5740 5741 5741 5742 5742 5743 5745 5745 5745 5745 5745 5745 5745 5745 5745 5745 5745 5745 5745 5745 5745 5745 5745 5745 5744 5744 5744 5743 5743 5743 5742
5705 5705 5706 5707 5708 5709 5710 5712 5712 5713 5715 5716 5718 5719 5720 5721 5722 5723 5724 5725 5726 5727 5728 5729 5729 5730 5730 5731 5731 5732 5734 5736 5736 5736 5737 5737 5738 5739 5740 5741 5741 5741 5741 5741 5741 5741 5741 5741 5741 5741 5741 5741 5741 5741 5740 5740 5740 5739 5739 5739 5738 5738 5737
5701 5702 5702 5703 5704 5704 5706 5707 5708 5709 5711 5712 5714 5716 5717 5717 5718 5719 5720 5722 5723 5724 5725 5725 5725 5726 5726 5727 5727 5728 5730 5731 5732 5732 5733 5734 5734 5735 5736 5736 5737 5737 5736 5736 5736 5737 5737 5737 5737 5737 5737 5737 5736 5736 5736 5735 5735 5734 5734 5733 5733 5732 5731
5697 5698 5699 5699 5699 5700 5701 5702 5703 5705 5706 5708 5710 5712 5713 5714 5715 5716 5717 5718 5719 5720 5721 5721 5721 5722 5723 5723 5723 5724 5725 5727 5728 5728 5729 5730 5731 5731 5731 5732 5732 5732 5732 5732 5732 5732 5732 5733 5733 5732 5732 5732 5732 5731 5731 5730 5729 5729 5728 5727 5726 5726 5725
5692 5694 5695 5695 5694 5695 5696 5697 5699 5701 5702 5704 5706 5708 5709 5711 5712 5712 5713 5714 5715 5716 5717 5717 5718 5718 5719 5719 5720 5720 5721 5723 5724 5725 5725 5726 5726 5727 5727 5727 5727 5727 5727 5727 5727 5728 5727 5727 5727 5727 5727 5727 5726 5726 5725 5724 5724 5723 5722 5721 5720 5719 5718
5690 5691 5692 5692 5691 5692 5693 5695 5696 5698 5698 5700 5702 5703 5705 5706 5707 5708 5709 5710 5711 5712 5713 5713 5714 5714 5715 5715 5716 5716 5717 5718 5720 5721 5721 5721 5722 5722 5723 5723 5723 5723 5723 5722 5722 5722 5722 5722 5722 5722 5722 5722 5721 5720 5720 5719 5718 5717 5716 5715 5714 5712 5711
5686 5687 5688 5688 5688 5689 5690 5692 5693 5693 5694 5695 5697 5699 5700 5701 5703 5704 5705 5706 5707 5707 5708 5708 5709 5710 5711 5711 5712 5713 5713 5714 5715 5717 5717 5717 5717 5718 5719 5719 5719 5718 5718 5718 5717 5717 5717 5717 5716 5716 5716 5716 5715 5714 5713 5713 5712 5711 5709 5708 5707 5705 5704
5682 5683 5683 5684 5684 5685 5686 5688 5689 5689 5689 5691 5692 5694 5695 5697 5698 5699 5700 5701 5702 5702 5702 5703 5704 5706 5706 5707 5708 5708 5709 5710 5711 5712 5712 5713 5713 5714 5714 5714 5714 5714 5713 5713 5713 5713 5712 5712 5711 5711 5710 5709 5708 5707 5706 5705 5704 5703 5702 5701 5699 5698 5696